DateTimeUTC,F1_A11,F1_S11,BsB_S11,BsG_S11,BsR_S11,BbsB_S11,BbsG_S11,BbsR_S11,BaB_A11,BaG_A11,BaR_A11,Tu_S11,T_S11,Uu_S11,U_S11,P_S11,T1_A11
2021-10-17T09:00:00Z,00000200,21000000,,,,,,,0001.07,0000.67,0000.77,15.2,22.4,,00.0,0666.7,30.7
2021-10-17T09:01:00Z,00000200,21000000,,,,,,,0000.71,0000.79,0000.58,15.2,22.4,,00.0,0666.7,30.7
2021-10-17T09:02:00Z,00000200,21000000,,,,,,,0000.51,0000.82,0000.55,15.2,22.4,,00.0,0666.7,30.7
2021-10-17T09:03:00Z,00000200,61000000,,,,,,,0010.79,0009.74,0007.43,15.2,22.4,,00.0,0666.7,30.7
2021-10-17T09:04:00Z,00000200,41000000,0002.72,0001.21,0000.86,0000.72,0000.06,0000.22,0006.87,0006.06,0005.41,15.3,22.2,,00.0,0667.6,30.7
2021-10-17T09:05:00Z,00000200,01000000,0001.73,0000.98,0000.74,0001.01,0000.38,0000.05,0001.39,0001.70,0001.15,15.4,22.2,,00.0,0667.7,30.7
2021-10-17T09:06:00Z,00000200,01000000,0001.67,0000.92,0000.66,0000.15,0000.29,0000.12,0001.27,0001.18,0000.60,15.4,22.2,,00.0,0667.6,30.7
2021-10-17T09:07:00Z,00000200,01000000,0001.66,0000.92,0000.45,0000.65,0000.25,-000.11,0000.79,0000.44,0000.65,15.4,22.1,,00.0,0667.6,30.7
2021-10-17T09:08:00Z,00000200,01000000,0001.49,0000.73,0000.54,0000.79,0000.29,-000.19,0001.04,0000.69,0000.69,15.4,22.1,,00.0,0667.6,30.7
2021-10-17T09:09:00Z,00000200,01000000,0001.69,0001.05,0000.42,0000.04,-000.03,0000.06,0000.71,0000.85,0000.56,15.4,22.1,,00.0,0667.6,30.7
2021-10-17T09:10:00Z,00000200,01000000,0001.33,0001.02,0000.52,0000.42,-000.07,0000.02,0000.70,0000.30,0000.46,15.4,22.1,,00.0,0667.6,30.7
2021-10-17T09:11:00Z,00000200,01000000,0001.84,0001.01,0000.44,0000.39,0000.32,0000.17,0000.66,0001.07,0000.59,15.4,22.1,,00.0,0667.6,30.7
2021-10-17T09:12:00Z,00000200,01000000,0001.66,0001.12,0000.58,0000.63,-000.04,0000.13,0000.76,0000.34,0000.22,15.4,22.1,,00.0,0667.6,30.7
2021-10-17T09:13:00Z,00000200,01000000,0001.59,0001.19,0000.73,0000.00,0000.02,0000.04,0000.35,0000.52,0000.52,15.4,22.1,,00.0,0667.6,30.7
2021-10-17T09:14:00Z,00000200,01000000,0000.95,0001.15,0000.82,0000.44,0000.11,-000.12,0000.95,0001.08,0000.19,15.4,22.1,,00.0,0667.6,30.7
2021-10-17T09:15:00Z,00000200,01000000,0002.36,0001.06,0000.61,0000.53,0000.09,-000.04,0000.43,0000.13,0000.58,15.4,22.1,,00.0,0667.6,30.7
2021-10-17T09:16:00Z,00000200,01000000,0001.95,0001.19,0000.99,-000.17,0000.39,0000.12,0000.61,0000.75,0000.25,15.4,22.0,,00.0,0667.6,30.7
2021-10-17T09:17:00Z,00000200,01000000,0001.38,0000.97,0000.57,0001.14,0000.07,-000.05,0000.51,0000.39,0000.39,15.4,22.1,,00.0,0667.7,30.7
2021-10-17T09:18:00Z,00000200,01000000,0001.86,0001.35,0000.55,0000.42,0000.19,0000.02,0000.28,0000.42,0000.37,15.4,22.0,,00.0,0667.7,30.7
2021-10-17T09:19:00Z,00000200,01000000,0001.98,0001.17,0000.59,0000.10,0000.14,0000.04,0000.79,0000.12,0000.01,15.3,22.0,,00.0,0667.7,30.7
2021-10-17T09:20:00Z,00000200,01000000,0001.54,0001.26,0000.66,0000.07,0000.35,0000.09,0000.00,0000.54,0000.13,15.3,22.0,,00.0,0667.7,30.7
2021-10-17T09:21:00Z,00000200,01000000,0001.79,0001.09,0000.80,-000.14,0000.06,0000.08,0000.47,0000.35,0000.66,15.3,22.0,,00.0,0667.8,30.7
2021-10-17T09:22:00Z,00000200,01000000,0001.47,0000.87,0000.68,-000.17,0000.26,0000.11,0000.84,0000.47,0000.48,15.3,22.0,,00.0,0667.8,30.7
2021-10-17T09:23:00Z,00000200,01000000,0001.19,0001.11,0000.73,0000.00,0000.09,0000.06,0000.50,0000.62,0000.47,15.4,22.0,,00.0,0667.7,30.7
2021-10-17T09:24:00Z,00000200,01000000,0000.81,0000.92,0000.73,0000.76,0000.67,-000.12,0000.39,0000.60,-000.19,15.3,22.0,,00.0,0667.8,30.7
2021-10-17T09:25:00Z,00000200,01000000,0000.88,0000.90,0000.70,0000.47,-000.00,-000.03,0000.79,0000.31,0000.68,15.3,22.0,,00.0,0667.8,30.7
2021-10-17T09:26:00Z,00000200,01000000,0001.58,0000.92,0000.42,0000.43,0000.09,0000.01,0000.33,0000.74,0000.43,15.3,22.0,,00.0,0667.8,30.7
2021-10-17T09:27:00Z,00000200,01000000,0001.15,0000.87,0000.73,0000.28,-000.10,0000.11,0000.86,0000.19,0000.17,15.3,22.0,,00.0,0667.8,30.7
2021-10-17T09:28:00Z,00000200,01000000,0001.70,0001.09,0000.48,0000.23,0000.29,0000.13,0000.62,0000.87,0000.67,15.3,22.0,,00.0,0667.8,30.7
2021-10-17T09:29:00Z,00000200,01000000,0001.39,0001.41,0000.59,0000.65,0000.11,0000.03,0000.96,0000.84,0000.53,15.3,22.0,,00.0,0667.8,30.7
2021-10-17T09:30:00Z,00000200,01000000,0001.67,0001.25,0000.22,0000.60,0000.03,-000.33,0000.34,0000.28,0000.27,15.3,21.9,,00.0,0667.8,30.7
2021-10-17T09:31:00Z,00000200,01000000,0001.82,0001.10,0000.58,-000.26,0000.25,-000.01,0000.60,0000.76,0000.67,15.3,21.9,,00.0,0667.8,30.7
2021-10-17T09:32:00Z,00000200,01000000,0001.48,0001.07,0000.72,0000.55,0000.09,0000.13,0000.52,0000.29,0000.07,15.3,22.0,,00.0,0667.8,30.7
2021-10-17T09:33:00Z,00000200,01000000,0001.33,0000.99,0000.44,0000.26,0000.26,0000.14,0000.54,0000.67,0000.58,15.3,22.0,,00.0,0667.8,30.7
2021-10-17T09:34:00Z,00000200,01000000,0001.20,0000.98,0000.86,-000.01,0000.31,0000.35,0000.29,0000.15,-000.10,15.3,21.9,,00.0,0667.8,30.7
2021-10-17T09:35:00Z,00000200,01000000,0001.18,0001.04,0000.99,0000.59,0000.13,0000.05,0000.65,0000.01,0000.43,15.3,21.9,,00.0,0667.9,30.7
2021-10-17T09:36:00Z,00000200,01000000,0001.38,0000.93,0000.76,0000.75,0000.39,-000.09,0000.21,0000.70,0000.37,15.3,21.9,,00.0,0667.9,30.7
2021-10-17T09:37:00Z,00000200,01000000,0001.37,0001.34,0000.73,-000.18,0000.07,0000.03,0000.35,0000.12,-000.01,15.2,21.9,,00.0,0667.9,30.7
2021-10-17T09:38:00Z,00000200,01000000,0002.04,0000.95,0000.53,0000.36,0000.27,0000.16,0000.36,0000.69,0000.50,15.2,21.9,,00.0,0667.9,30.7
2021-10-17T09:39:00Z,00000200,01000000,0001.68,0000.92,0000.67,0000.47,-000.02,0000.08,0000.74,0000.48,0000.18,15.2,21.9,,00.0,0667.9,30.7
2021-10-17T09:40:00Z,00000200,01000000,0001.10,0001.20,0000.62,0000.67,0000.10,-000.30,0000.37,0000.40,0000.50,15.2,21.9,,00.0,0667.9,30.7
2021-10-17T09:41:00Z,00000200,01000000,0001.56,0001.20,0000.75,0000.19,0000.11,-000.02,0000.42,0000.43,0000.33,15.2,21.9,,00.0,0667.9,30.7
2021-10-17T09:42:00Z,00000200,01000000,0001.40,0000.96,0000.78,0000.29,0000.12,0000.06,0000.74,0000.44,0000.49,15.2,21.9,,00.0,0667.9,30.7
2021-10-17T09:43:00Z,00000200,01000000,0002.21,0000.87,0000.81,0000.22,0000.67,0000.20,0000.73,0000.30,0000.34,15.2,21.9,,00.0,0668.0,30.7
2021-10-17T09:44:00Z,00000200,01000000,0001.71,0001.20,0000.53,0000.73,0000.31,0000.13,0000.44,0000.75,0000.34,15.2,21.9,,00.0,0668.0,30.7
2021-10-17T09:45:00Z,00000200,01000000,0002.31,0000.96,0000.70,0000.66,0000.14,-000.17,0000.23,0000.45,0000.30,15.2,21.8,,00.0,0668.0,30.7
2021-10-17T09:46:00Z,00000200,01000000,0001.15,0000.75,0000.58,0000.33,0000.22,0000.04,0000.69,0000.27,0000.59,15.2,21.8,,00.0,0668.0,30.7
2021-10-17T09:47:00Z,00000200,01000000,0001.45,0001.31,0000.52,0000.17,0000.06,0000.05,0000.51,0000.74,-000.13,15.2,21.8,,00.0,0668.0,30.7
2021-10-17T09:48:00Z,00000200,01000000,0001.51,0000.89,0000.64,0000.26,0000.01,0000.17,0000.75,0000.30,0000.77,15.1,21.8,,00.0,0668.1,30.7
2021-10-17T09:49:00Z,00000200,01000000,0001.88,0000.90,0000.58,0000.47,0000.37,0000.15,0000.38,0000.44,0000.15,15.1,21.8,,00.0,0668.1,30.7
2021-10-17T09:50:00Z,00000200,01000000,0002.19,0001.37,0000.84,0001.03,0000.22,0000.20,0000.48,0000.40,0000.60,15.1,21.8,,00.0,0668.1,30.7
2021-10-17T09:51:00Z,00000200,01000000,0001.52,0000.94,0000.45,0001.37,0000.27,-000.12,0000.57,0000.97,0000.22,15.2,21.8,,00.0,0668.1,30.7
2021-10-17T09:52:00Z,00000200,01000000,0001.41,0001.28,0000.84,-000.09,-000.01,-000.05,0003.18,0002.47,0002.32,15.1,21.8,,00.0,0668.2,30.7
2021-10-17T09:53:00Z,00000200,01000000,0002.83,0002.18,0001.49,0001.16,0000.41,0000.15,0019.56,0018.25,0014.33,15.1,21.8,,00.0,0668.2,30.7
2021-10-17T09:54:00Z,00000200,01000000,0006.04,0004.26,0002.64,0001.10,0000.81,0000.52,0056.27,0052.14,0041.64,15.1,21.8,,00.0,0668.2,30.7
2021-10-17T09:55:00Z,00000200,01000000,0008.07,0005.74,0003.89,0001.37,0001.38,0001.03,0084.77,0078.80,0063.53,15.2,21.8,,00.0,0668.3,30.7
2021-10-17T09:56:00Z,00000200,01000000,0007.75,0006.38,0003.97,0001.68,0001.37,0000.62,0093.16,0086.00,0069.21,15.2,21.8,,00.0,0668.3,30.7
2021-10-17T09:57:00Z,00000200,41000000,,,,,,,0025.88,0024.91,0019.97,15.2,21.8,,00.0,0668.3,30.7
2021-10-17T09:58:00Z,00000200,61000000,,,,,,,0000.60,0000.44,0000.63,14.9,21.9,,00.0,0667.4,30.7
2021-10-17T09:59:00Z,00000200,21000000,,,,,,,0000.31,0000.09,-000.07,14.8,22.0,,00.0,0667.4,30.7
